STARLINK-32438, 61722

Orbit data source: Space-Track

STARLINK-32438, 61722 is a payload satellite owned by SpaceX/Seattle (US) in LEO that was launched on Wed, 30 Oct 2024 UTC via an FALCON 9 launch vehicle from the Air Force Eastern Test Range (AFETR). Payload-class satellites include a variety of spacecraft equipped with specific instruments for various scientific and technological missions. These include communications satellites like Starlink; space stations such as the ISS; scientific satellites like the Hubble; Earth observation satellites from companies like Planet Labs, Umbra, and HawkEye 360; GPS; miniature CubeSats for education and research; and military/defense satellites.

Loading next visibility...
Identifier
61722, 2024-196R
Orbit
LEO
Country
Flag of USUS
Related business
Manufacturer
SpaceX/Seattle
Mission
Operational Commercial Communications
Bus & Motor
STARLINK V2M, Unknown motor
Mass
730 kg wet, ~700 kg dry
Launch date (UTC)
2024-10-30 (11 months ago)
Launch vehicle
FALCON 9
Launch site
Air Force Eastern Test Range (AFETR)
Object type
Payload
Rocket body
Debris
Shape & HBR
Box + 2 Pan, 14.5 m
Radar Cross Section
36.964 m², Large (>1 m²)

Expand to show TLE details & history
Last TLE update: 8 hours ago

TLE from 8 hours ago
0 STARLINK-32438
1 61722U 24196R   25259.23716884  .00000644  00000-0  33893-4 0  9996
2 61722  53.1604 191.8998 0001240  71.2089 288.9046 15.30188786 50445
Epoch: 2025-09-16T05:41Z
TLE epoch observation values (Epoch: 2025-09-16T05:41:31.387Z)
Latitude
-0.00005°
Longitude
111.08863°
Altitude
475.873 km
Speed
7.629 km/s
True Right ascension
12h 47m 35s
True Declination
0° 00' 00"
Sunlit
Object was in daylight at epoch
Visualization orbit readout
Latitude
Unknown
Longitude
Unknown
Altitude
Unknown
Speed
Unknown
Apparent Right ascension
Unknown
Apparent Declination
Unknown
Sunlit
N/A
Visualization observer readout
Local Sidereal Time
06:35:38
Azimuth
Unknown
Elevation
Unknown
Doppler factor
Unknown
Orbital elements
Apogee altitude
476.355 km
Perigee altitude
474.655 km
Semi-major axis
6,853.642 km
Eccentricity
0.00012
Inclination
53.1604°
RAAN
191.8998°
Arg. of periapsis
71.2089°
True anomaly
288.89116°
Mean anomaly
288.9046°
Eccentric anomaly
288.89788°
Mean motion
3.82526 °/min
Orbital period
94.11 mins
BSTAR
0.000033893
Loading maneuver chart data...
Computing Atmospheric mass density...
Loading historical data...
Loading historical data...
Loading historical data...
Loading historical data...
Loading historical data...
Loading historical data...
Loading historical data...

Documentation

Showing up to 5 results
|